Weather History for McGrath, AK

Change the Weather History Date:

Saturday, March 30, 2013

  Actual Average Record
Temperature  
Mean Temperature 34 °F 18 °F  
Max Temperature 42 °F 31 °F 48 °F (1961)
Min Temperature 25 °F - -35 °F (1952)
Degree Days  
Heating Degree Days 31 47  
Month to date heating degree days 1690 1610  
Since 1 July heating degree days 12219 11848  
Cooling Degree Days 0    
Month to date cooling degree days 0  
Year to date cooling degree days 0  
Moisture  
Dew Point 24 °F    
Average Humidity 0    
Maximum Humidity 0    
Minimum Humidity 0    
Precipitation  
Precipitation T in 0.03 in 1.07 in (1946)
Month to date precipitation 0.49 0.79  
Year to date precipitation 3.66 2.82  
Snow  
Snow T in 0.20 in 8.70 in (1946)
Month to date snowfall 7.2 11.0  
Since 1 July snowfall 73.1 91.0  
Snow Depth 31.00 in    
Sea Level Pressure  
Sea Level Pressure 30.10 in    
Wind  
Wind Speed 2 mph (SE)    
Max Wind Speed 8 mph    
Max Gust Speed 12 mph    
Visibility 10 miles    
Events Snow    
T = Trace of Precipitation, MM = Missing Value Source: NWS Daily Summary

Daily Weather History Graph

Daily Weather History Graph

Search for Another Location

Airport:

Trip Planner

Search our weather history database for the weather conditions in past years. The results will help you decide how hot, cold, wet, or windy it might be!

Date:

Astronomy

Mar. 30, 2013 Rise Set
Actual Time 7:47 AM AKDT 9:07 PM AKDT
Civil Twilight 7:00 AM AKDT 9:54 PM AKDT
Nautical Twilight 6:00 AM AKDT 10:55 PM AKDT
Astronomical Twilight 4:47 AM AKDT 12:09 AM AKDT
Moon 1:32 AM AKDT (3/30) 8:32 AM AKDT (3/30)
Length of Visible Light 14h 54m
Length of Day
13h 19m
Waning Gibbous, 85% of the Moon is Illuminated
Mar 30
Waning Gibbous
Apr 2
Last Quarter
Apr 10
New
Apr 18
First Quarter
Apr 25
Full

Hourly Weather History & Observations

Time (AKDT) Temp. Windchill Dew Point Humidity Pressure Visibility Wind Dir Wind Speed Gust Speed Precip Events Conditions
12:53 AM 30.9 °F 26.2 °F 18.0 °F 59% 29.96 in 10.0 mi SSE 4.6 mph - N/A   Overcast
1:53 AM 30.0 °F - 17.1 °F 59% 29.96 in 10.0 mi Calm Calm - N/A   Overcast
2:53 AM 28.9 °F 25.2 °F 15.1 °F 56% 29.98 in 10.0 mi SE 3.5 mph - N/A   Overcast
3:11 AM 28.4 °F 23.3 °F 15.8 °F 59% 29.97 in 10.0 mi SSE 4.6 mph - N/A   Overcast
3:24 AM 28.4 °F 22.2 °F 19.4 °F 69% 29.97 in 10.0 mi SE 5.8 mph - N/A   Overcast
3:53 AM 26.1 °F 21.9 °F 21.9 °F 84% 30.00 in 3.0 mi ESE 3.5 mph - 0.00 in Snow Light Snow
4:16 AM 26.6 °F 21.2 °F 21.2 °F 80% 29.99 in 9.0 mi ESE 4.6 mph - 0.00 in   Overcast
4:53 AM 26.1 °F - 21.0 °F 81% 30.02 in 10.0 mi Calm Calm - 0.00 in   Overcast
5:53 AM 26.1 °F 21.9 °F 21.0 °F 81% 30.04 in 10.0 mi SE 3.5 mph - N/A   Overcast
6:53 AM 26.1 °F - 19.9 °F 78% 30.05 in 8.0 mi Calm Calm - N/A   Overcast
7:53 AM 26.1 °F - 19.9 °F 78% 30.07 in 9.0 mi Calm Calm - 0.00 in Snow Light Snow
8:53 AM 26.1 °F 21.9 °F 21.9 °F 84% 30.09 in 10.0 mi ESE 3.5 mph - 0.00 in   Overcast
9:53 AM 27.0 °F - 21.9 °F 81% 30.11 in 10.0 mi Calm Calm - N/A   Overcast
10:53 AM 28.0 °F - 23.0 °F 81% 30.13 in 9.0 mi Calm Calm - 0.00 in Snow Light Snow
11:17 AM 28.4 °F - 24.8 °F 86% 30.10 in 9.0 mi Calm Calm - 0.00 in   Overcast
11:26 AM 30.2 °F - 24.8 °F 80% 30.10 in 10.0 mi Calm Calm - 0.00 in   Overcast
11:53 AM 30.0 °F - 24.1 °F 79% 30.13 in 10.0 mi Calm Calm - 0.00 in   Overcast
12:00 PM 30.2 °F - 24.8 °F 80% 30.11 in 10.0 mi Calm Calm - N/A   Overcast
12:25 PM 32.0 °F - 24.8 °F 75% 30.12 in 10.0 mi Calm Calm - N/A   Overcast
12:38 PM 32.0 °F - 26.6 °F 80% 30.12 in 10.0 mi Calm Calm - N/A   Overcast
12:53 PM 33.1 °F 30.0 °F 26.1 °F 75% 30.14 in 10.0 mi ESE 3.5 mph - N/A   Overcast
1:53 PM 36.0 °F - 28.0 °F 73% 30.15 in 10.0 mi Calm Calm - N/A   Mostly Cloudy
2:10 PM 35.6 °F - 28.4 °F 75% 30.13 in 10.0 mi Calm Calm - N/A   Mostly Cloudy
2:53 PM 39.0 °F - 28.0 °F 65% 30.15 in 10.0 mi Calm Calm - N/A   Mostly Cloudy
3:53 PM 39.9 °F 37.8 °F 28.0 °F 63% 30.15 in 10.0 mi Variable 3.5 mph - N/A   Mostly Cloudy
4:53 PM 39.0 °F 36.8 °F 28.0 °F 65% 30.15 in 10.0 mi SE 3.5 mph - N/A   Mostly Cloudy
5:53 PM 39.9 °F 36.7 °F 28.9 °F 65% 30.15 in 10.0 mi WSW 4.6 mph - N/A   Mostly Cloudy
6:53 PM 39.9 °F - 28.9 °F 65% 30.15 in 10.0 mi Calm Calm - N/A   Mostly Cloudy
7:53 PM 39.0 °F 35.7 °F 28.0 °F 65% 30.16 in 10.0 mi South 4.6 mph - N/A   Mostly Cloudy
8:53 PM 36.0 °F - 28.0 °F 73% 30.17 in 10.0 mi Calm Calm - N/A   Overcast
9:53 PM 33.1 °F 30.0 °F 28.9 °F 85% 30.19 in 10.0 mi NW 3.5 mph - N/A   Overcast
10:53 PM 30.9 °F - 28.0 °F 89% 30.21 in 10.0 mi Calm Calm - N/A   Overcast
11:53 PM 30.0 °F - 28.0 °F 92% 30.22 in 10.0 mi Calm Calm - N/A   Overcast